sat.trackr.live / text

‹ back to catalog

ONEWEB-0554

NORAD 56056 · 2023-043L

PAYLOAD ACTIVE UNKNOWN

§ Identity

Operator
Country
UK
Launch date
2023-03-26
Launch site
SRILR
Launch vehicle
Mass (kg)
RCS (m²)

Purposes: comms

External: N2YO · Heavens-Above · Gunter

§ Orbital elements

Epoch: 2026-09-20T02:08:50.404128Z

Period
109.37 min
Inclination
87.9152°
Eccentricity
0.0002512
Mean motion
13.16593643 rev/d
Perigee alt
1,195.9 km
Apogee alt
1,199.7 km
Semi-major
7,575.9 km
B*
1.0195e-4
RAAN
209.9406°
Arg perigee
80.5471°
Mean anomaly
279.5944°
Rev number
17,144

§ Raw data

ONEWEB-05541 56056U 23043L   26263.08947227  .00000052  00000+0  10195-3 0  99972 56056  87.9152 209.9406 0002512  80.5471 279.5944 13.16593643171449

JSON: /api/v1/satellites/56056 · /tle

For live sub-satellite position, see the globe view (requires WebGL).

§ Visibility from observer

Set your observer location to see the next 7 days of passes ≥ 10°. The values pass through the URL so the page stays shareable.

No JS? Fill the form by hand. The geolocation button needs JavaScript.